sat.trackr.live / text

‹ back to catalog

AMC-15

NORAD 28446 · 2004-041A

PAYLOAD ACTIVE UNKNOWN

§ Identity

Operator
Country
SES
Launch date
2004-10-14
Launch site
TYMSC
Launch vehicle
Mass (kg)
RCS (m²)
22.41

Purposes: comms

External: N2YO · Heavens-Above · Gunter

§ Orbital elements

Epoch: 2026-05-25T04:34:01.670304Z

Period
1,436.09 min
Inclination
0.0236°
Eccentricity
0.0002324
Mean motion
1.00272312 rev/d
Perigee alt
35,776.6 km
Apogee alt
35,796.2 km
Semi-major
42,164.6 km
B*
0.0000e+0
RAAN
308.2730°
Arg perigee
122.6149°
Mean anomaly
135.3387°
Rev number
7,907

§ Raw data

AMC-151 28446U 04041A   26145.19029711 -.00000091  00000+0  00000+0 0  99902 28446   0.0236 308.2730 0002324 122.6149 135.3387  1.00272312 79077

JSON: /api/v1/satellites/28446 · /tle

For live sub-satellite position, see the globe view (requires WebGL).

§ Visibility from observer

Set your observer location to see the next 7 days of passes ≥ 10°. The values pass through the URL so the page stays shareable.

No JS? Fill the form by hand. The geolocation button needs JavaScript.